Regional Weather Roundup
Issued by NWS

Home | Current Version | Previous Version | Text Only | Print | Product List | Glossary On
Versions: 1 2 3 4 5 6 7 8 9 10 11 12 13 14 15 16 17 18 19 20 21 22 23 24 25 26 27 28 29 30 31 32 33 34 35 36 37 38 39 40 41 42 43 44 45 46 47 48 49 50
927
ASUS44 KLIX 242005
RWRLA
LOUISIANA WEATHER ROUNDUP
NATIONAL WEATHER SERVICE NEW ORLEANS LA
300 PM CDT THU APR 24 2014

NOTE: "FAIR" INDICATES FEW OR NO CLOUDS BELOW 12,000 FEET WITH NO
      SIGNIFICANT WEATHER AND/OR OBSTRUCTIONS TO VISIBILITY.
      SKY/WX - SKY CONDITION AND SIGNIFICANT WEATHER.
      TMP - AIR TEMPERATURE.    DP   - DEWPOINT TEMPERATURE.
      RH  - RELATIVE HUMIDITY.  PRES - PRESSURE.
      HX  - HEAT INDEX.         WCI  - WIND CHILL INDEX.

*  THESE STATIONS ARE NOT NWS OR FAA STATIONS AND ARE NOT UNDER
   NWS QUALITY CONTROL.

LAZ040-048-061>063-065-066-069-242100-
SOUTHEAST LOUISIANA

CITY           SKY/WX    TMP DP  RH WIND       PRES   REMARKS
N.O. AUDUBON     N/A     81  66  59 MISG        N/A
N.O. INTL ARPT PTSUNNY   82  66  58 S16       29.93S
N.O. LAKEFRONT PTSUNNY   82  64  54 S13       29.93F
N.O. DOWNTOWN* FAIR      84  63  48 S13G18    29.94R
SLIDELL        PTSUNNY   80  62  54 S6G17     29.93F
BATON ROUGE    PTSUNNY   82  63  52 S12       29.91F
BOOTHVILLE     SUNNY     75  66  73 S8        29.97S
BELLE CHASSE   PTSUNNY   79  65  62 S13       29.94S
BOGALUSA*        N/A     85  58  41 S6G16     29.93F
GALLIANO*      MOCLDY    81  64  56 S10       29.95S
NEW ROADS*     MOCLDY    81  65  56 S9G21     29.88F
GONZALES*      MOCLDY    83  66  56 SW9G17    29.92F
HAMMOND*       MOSUNNY   84  63  48 S9        29.93F
HOUMA*         MOSUNNY   79  64  61 SE12      29.95S
PORT FOURCHON* PTCLDY    75  66  73 SE10      29.97F

$$

LAZ041-044-053-054-242100-
SOUTHWEST LOUISIANA

CITY           SKY/WX    TMP DP  RH WIND       PRES   REMARKS
LAKE CHARLES   PTSUNNY   78  66  66 S10       29.89S
LAFAYETTE      MOSUNNY   79  65  62 S14G20    29.89F
PATTERSON      MOSUNNY   79  66  65 SW14      29.97F
SALT POINT       N/A     80  69  69 VRB3      29.93F
NEW IBERIA     MOSUNNY   82  65  56 S18       29.89F
CHENAULT AIRPK NOT AVBL

$$

LAZ027-028-242100-
CENTRAL LOUISIANA

CITY           SKY/WX    TMP DP  RH WIND       PRES   REMARKS
FORT POLK      CLOUDY    80  64  58 S14       29.86R
ALEXANDRIA INT PTSUNNY   80  66  62 S9        29.84F
ALEXANDRIA     CLOUDY    82  66  58 S6        29.86F

$$

LAZ001-002-242100-
NORTHWEST LOUISIANA

CITY           SKY/WX    TMP DP  RH WIND       PRES   REMARKS
SHREVEPORT     TSTM      77  64  64 SW13G18   29.80F
BARKSDALE AFB  LGT RAIN  77  66  69 SW13      29.79F
DTN SHREVEPORT CLOUDY    75  65  70 SW12      29.80F

$$

LAZ014-016-242100-
NORTHEAST LOUISIANA

CITY           SKY/WX    TMP DP  RH WIND       PRES   REMARKS
MONROE         PTSUNNY   80  65  59 S10G23    29.81F
TALLULAH       NOT AVBL

$$




USA.gov is the U.S. government's official web portal to all federal, state and local government web resources and services.